XNO106 EGKK-LXGB

Flight info

Callsign XNO106
Flight time 2h 14m
Altitude 35000
Route IMVUR N63 SAM M195 MARUK N621 LELNA DCT NOVAN DCT DELOG DCT CRISA DCT VULPE DCT MAR N864 PIMOS
Aircraft A320/M-SDE3FGHIRWY/LB1

Departure

Time 2026-04-14 07:17
Airport London Gatwick Airport (EGKK)

Arrival

Time 2026-04-14 09:31
Airport Gibraltar Airport (LXGB)
Time Latitude Longitude Altitude Speed Heading
2026-04-14 06:51 51.15776 -0.17938 213 ft 0 kts 32°
2026-04-14 07:04 51.15771 -0.17943 204 ft 4 kts 32°
2026-04-14 07:04 51.15749 -0.17966 216 ft 4 kts 32°
2026-04-14 07:05 51.15735 -0.17993 213 ft 4 kts 79°
2026-04-14 07:05 51.15731 -0.18023 212 ft 4 kts 101°
2026-04-14 07:05 51.15744 -0.18044 209 ft 4 kts 167°
2026-04-14 07:05 51.15765 -0.18051 208 ft 4 kts 167°
2026-04-14 07:06 51.15791 -0.18060 212 ft 4 kts 167°
2026-04-14 07:06 51.15816 -0.18069 213 ft 2 kts 167°
2026-04-14 07:06 51.15818 -0.18070 213 ft 0 kts 167°
2026-04-14 07:09 51.15814 -0.18068 212 ft 1 kts 167°
2026-04-14 07:09 51.15797 -0.18062 209 ft 4 kts 167°
2026-04-14 07:09 51.15764 -0.18051 204 ft 6 kts 167°
2026-04-14 07:09 51.15714 -0.18036 207 ft 8 kts 177°
2026-04-14 07:10 51.15678 -0.18110 205 ft 10 kts 257°
2026-04-14 07:10 51.15661 -0.18233 212 ft 12 kts 257°
2026-04-14 07:10 51.15640 -0.18379 204 ft 15 kts 257°
2026-04-14 07:10 51.15618 -0.18551 213 ft 17 kts 259°
2026-04-14 07:11 51.15595 -0.18722 204 ft 14 kts 257°
2026-04-14 07:11 51.15532 -0.18824 215 ft 16 kts 172°
2026-04-14 07:11 51.15419 -0.18782 205 ft 18 kts 168°
2026-04-14 07:11 51.15291 -0.18738 204 ft 20 kts 167°
2026-04-14 07:12 51.15182 -0.18700 207 ft 12 kts 167°
2026-04-14 07:12 51.15124 -0.18773 208 ft 14 kts 258°
2026-04-14 07:12 51.15102 -0.18934 209 ft 16 kts 257°
2026-04-14 07:12 51.15077 -0.19116 204 ft 18 kts 258°
2026-04-14 07:13 51.15049 -0.19321 206 ft 20 kts 257°
2026-04-14 07:13 51.15029 -0.19469 213 ft 21 kts 257°
2026-04-14 07:13 51.14996 -0.19711 209 ft 23 kts 258°
2026-04-14 07:13 51.14958 -0.19977 203 ft 26 kts 257°
2026-04-14 07:14 51.14921 -0.20129 210 ft 13 kts 215°
2026-04-14 07:14 51.14838 -0.20186 209 ft 15 kts 242°
2026-04-14 07:14 51.14813 -0.20363 202 ft 17 kts 258°
2026-04-14 07:14 51.14786 -0.20560 209 ft 19 kts 258°
2026-04-14 07:15 51.14756 -0.20778 207 ft 21 kts 257°
2026-04-14 07:15 51.14733 -0.20942 204 ft 10 kts 257°
2026-04-14 07:15 51.14669 -0.20973 203 ft 12 kts 165°
2026-04-14 07:15 51.14589 -0.20926 212 ft 10 kts 165°
2026-04-14 07:16 51.14560 -0.20866 204 ft 8 kts 79°
2026-04-14 07:16 51.14574 -0.20772 209 ft 10 kts 78°
2026-04-14 07:16 51.14596 -0.20615 207 ft 34 kts 77°
2026-04-14 07:16 51.14697 -0.19877 205 ft 99 kts 77°
2026-04-14 07:17 51.14881 -0.18545 204 ft 146 kts 77°
2026-04-14 07:17 51.15117 -0.16826 549 ft 157 kts 78°
2026-04-14 07:17 51.15353 -0.15121 1170 ft 160 kts 80°
2026-04-14 07:17 51.15590 -0.13392 1815 ft 160 kts 83°
2026-04-14 07:18 51.15830 -0.11609 2174 ft 176 kts 84°
2026-04-14 07:18 51.16101 -0.09556 2393 ft 199 kts 83°
2026-04-14 07:18 51.16404 -0.07308 2612 ft 222 kts 80°
2026-04-14 07:18 51.17204 -0.05047 3007 ft 245 kts 44°
2026-04-14 07:19 51.18708 -0.03901 3010 ft 246 kts
2026-04-14 07:19 51.20416 -0.04198 3010 ft 244 kts 341°
2026-04-14 07:19 51.21813 -0.05507 3008 ft 234 kts 304°
2026-04-14 07:19 51.22553 -0.07756 3012 ft 229 kts 280°
2026-04-14 07:20 51.22660 -0.10391 3346 ft 246 kts 255°
2026-04-14 07:20 51.22169 -0.13058 4136 ft 250 kts 248°
2026-04-14 07:20 51.21617 -0.15702 5028 ft 252 kts 249°
2026-04-14 07:20 51.21051 -0.18369 5873 ft 256 kts 249°
2026-04-14 07:21 51.20470 -0.21084 6657 ft 261 kts 250°
2026-04-14 07:21 51.19877 -0.23849 7426 ft 265 kts 251°
2026-04-14 07:21 51.19279 -0.26648 8224 ft 268 kts 251°
2026-04-14 07:21 51.18676 -0.29468 9040 ft 270 kts 252°
2026-04-14 07:22 51.18067 -0.32307 9838 ft 272 kts 251°
2026-04-14 07:22 51.17157 -0.34979 10463 ft 283 kts 235°
2026-04-14 07:22 51.15888 -0.37541 10634 ft 306 kts 233°
2026-04-14 07:22 51.14492 -0.40234 10944 ft 321 kts 232°
2026-04-14 07:23 51.13040 -0.42979 11524 ft 327 kts 232°
2026-04-14 07:23 51.11563 -0.45763 12161 ft 331 kts 232°
2026-04-14 07:23 51.10075 -0.48578 12789 ft 334 kts 232°
2026-04-14 07:23 51.08575 -0.51428 13414 ft 338 kts 232°
2026-04-14 07:24 51.07014 -0.54404 14046 ft 342 kts 232°
2026-04-14 07:24 51.05533 -0.57230 14577 ft 344 kts 232°
2026-04-14 07:24 51.03996 -0.60168 15152 ft 346 kts 232°
2026-04-14 07:24 51.02452 -0.63118 15725 ft 348 kts 233°
2026-04-14 07:25 51.00898 -0.66083 16308 ft 351 kts 233°
2026-04-14 07:25 50.99332 -0.69065 16878 ft 353 kts 233°
2026-04-14 07:25 50.97753 -0.72065 17441 ft 355 kts 233°
2026-04-14 07:25 50.96163 -0.75078 18000 ft 358 kts 233°
2026-04-14 07:26 50.94562 -0.78111 18531 ft 360 kts 233°
2026-04-14 07:26 50.92944 -0.81176 19007 ft 363 kts 233°
2026-04-14 07:26 50.91319 -0.84252 19481 ft 366 kts 233°
2026-04-14 07:26 50.89677 -0.87352 19950 ft 369 kts 233°
2026-04-14 07:27 50.88017 -0.90481 20415 ft 372 kts 234°
2026-04-14 07:27 50.86344 -0.93625 20836 ft 376 kts 234°
2026-04-14 07:27 50.84649 -0.96811 21225 ft 380 kts 235°
2026-04-14 07:27 50.82940 -1.00020 21647 ft 383 kts 235°
2026-04-14 07:28 50.81220 -1.03248 22067 ft 386 kts 235°
2026-04-14 07:28 50.79484 -1.06504 22492 ft 389 kts 236°
2026-04-14 07:28 50.77731 -1.09778 22907 ft 391 kts 236°
2026-04-14 07:28 50.75967 -1.13073 23328 ft 394 kts 236°
2026-04-14 07:29 50.74190 -1.16395 23725 ft 397 kts 236°
2026-04-14 07:29 50.72401 -1.19734 24073 ft 400 kts 236°
2026-04-14 07:29 50.70599 -1.23091 24431 ft 402 kts 236°
2026-04-14 07:29 50.68786 -1.26462 24790 ft 404 kts 236°
2026-04-14 07:30 50.66962 -1.29846 25163 ft 406 kts 237°
2026-04-14 07:30 50.65128 -1.33242 25515 ft 408 kts 237°
2026-04-14 07:30 50.63288 -1.36651 25842 ft 410 kts 237°
2026-04-14 07:30 50.61434 -1.40082 26146 ft 413 kts 237°
2026-04-14 07:31 50.59570 -1.43521 26525 ft 413 kts 237°
2026-04-14 07:31 50.57700 -1.46968 26887 ft 415 kts 237°
2026-04-14 07:31 50.55826 -1.50425 27227 ft 416 kts 237°
2026-04-14 07:31 50.53941 -1.53897 27572 ft 418 kts 237°
2026-04-14 07:32 50.52051 -1.57375 27910 ft 420 kts 237°
2026-04-14 07:32 50.50149 -1.60864 28258 ft 421 kts 237°
2026-04-14 07:32 50.48233 -1.64375 28603 ft 423 kts 237°
2026-04-14 07:32 50.46311 -1.67884 28926 ft 425 kts 237°
2026-04-14 07:33 50.44380 -1.71407 29276 ft 427 kts 237°
2026-04-14 07:33 50.42440 -1.74946 29623 ft 428 kts 237°
2026-04-14 07:33 50.40501 -1.78476 30077 ft 427 kts 237°
2026-04-14 07:34 50.34696 -1.89033 31171 ft 426 kts 238°
2026-04-14 07:34 50.32761 -1.92546 31532 ft 426 kts 238°
2026-04-14 07:34 50.30820 -1.96060 31868 ft 427 kts 238°
2026-04-14 07:35 50.28876 -1.99569 32212 ft 428 kts 237°
2026-04-14 07:35 50.26682 -2.02811 32535 ft 442 kts 227°
2026-04-14 07:35 50.24054 -2.05433 32844 ft 457 kts 215°
2026-04-14 07:35 50.21045 -2.07262 33173 ft 472 kts 203°
2026-04-14 07:36 50.17766 -2.08148 33474 ft 485 kts 192°
2026-04-14 07:36 50.14384 -2.08568 33709 ft 488 kts 191°
2026-04-14 07:36 50.10992 -2.08994 33968 ft 490 kts 191°
2026-04-14 07:36 50.07587 -2.09427 34222 ft 491 kts 192°
2026-04-14 07:37 50.04184 -2.09866 34509 ft 491 kts 192°
2026-04-14 07:37 50.00781 -2.10310 34823 ft 490 kts 192°
2026-04-14 07:37 49.97442 -2.11055 35033 ft 480 kts 202°
2026-04-14 07:38 49.91056 -2.13987 35083 ft 481 kts 205°
2026-04-14 07:38 49.84687 -2.16999 35082 ft 482 kts 205°
2026-04-14 07:39 49.78261 -2.19995 35087 ft 483 kts 205°
2026-04-14 07:39 49.71822 -2.22968 35071 ft 483 kts 204°
2026-04-14 07:40 49.65374 -2.25953 35067 ft 484 kts 205°
2026-04-14 07:40 49.58915 -2.28943 35080 ft 484 kts 205°
2026-04-14 07:41 49.52460 -2.31911 35087 ft 484 kts 205°
2026-04-14 07:41 49.46007 -2.34876 35048 ft 484 kts 205°
2026-04-14 07:42 49.39547 -2.37833 35053 ft 485 kts 205°
2026-04-14 07:42 49.33083 -2.40780 35057 ft 485 kts 204°
2026-04-14 07:43 49.26618 -2.43724 35050 ft 485 kts 204°
2026-04-14 07:43 49.20147 -2.46663 35070 ft 485 kts 204°
2026-04-14 07:44 49.13667 -2.49606 35070 ft 486 kts 204°
2026-04-14 07:44 49.07184 -2.52543 35072 ft 486 kts 204°
2026-04-14 07:45 49.00697 -2.55460 35049 ft 486 kts 204°
2026-04-14 07:45 48.94205 -2.58382 35048 ft 487 kts 204°
2026-04-14 07:46 48.87709 -2.61298 35051 ft 487 kts 204°
2026-04-14 07:46 48.81200 -2.64206 35048 ft 487 kts 204°
2026-04-14 07:47 48.74699 -2.67096 35072 ft 486 kts 204°
2026-04-14 07:47 48.68210 -2.69977 35080 ft 486 kts 204°
2026-04-14 07:48 48.61729 -2.72848 35072 ft 485 kts 204°
2026-04-14 07:48 48.55253 -2.75710 35071 ft 485 kts 204°
2026-04-14 07:49 48.48773 -2.78569 35065 ft 485 kts 204°
2026-04-14 07:49 48.42292 -2.81424 35072 ft 485 kts 204°
2026-04-14 07:50 48.35814 -2.84266 35061 ft 486 kts 204°
2026-04-14 07:50 48.29319 -2.87109 35065 ft 486 kts 204°
2026-04-14 07:51 48.22822 -2.89944 35068 ft 486 kts 204°
2026-04-14 07:51 48.16317 -2.92773 35054 ft 487 kts 203°
2026-04-14 07:52 48.09807 -2.95593 35061 ft 487 kts 203°
2026-04-14 07:52 48.03286 -2.98419 35057 ft 488 kts 203°
2026-04-14 07:53 47.96777 -3.01235 35072 ft 487 kts 203°
2026-04-14 07:53 47.91375 -3.03567 35079 ft 486 kts 203°
2026-04-14 07:54 47.84874 -3.06359 35079 ft 486 kts 203°
2026-04-14 07:54 47.78374 -3.09136 35075 ft 486 kts 203°
2026-04-14 07:55 47.71879 -3.11917 35060 ft 486 kts 203°
2026-04-14 07:55 47.65377 -3.14688 35059 ft 486 kts 203°
2026-04-14 07:56 47.58866 -3.17448 35062 ft 487 kts 203°
2026-04-14 07:56 47.52354 -3.20210 35056 ft 487 kts 202°
2026-04-14 07:57 47.45833 -3.22968 35064 ft 487 kts 202°
2026-04-14 07:57 47.39307 -3.25719 35068 ft 487 kts 202°
2026-04-14 07:58 47.32784 -3.28465 35057 ft 488 kts 202°
2026-04-14 07:58 47.26251 -3.31206 35038 ft 488 kts 202°
2026-04-14 07:59 47.19725 -3.33942 35059 ft 487 kts 202°
2026-04-14 07:59 47.13207 -3.36664 35090 ft 487 kts 202°
2026-04-14 08:00 47.06700 -3.39368 35086 ft 486 kts 202°
2026-04-14 08:00 47.00190 -3.42075 35090 ft 486 kts 202°
2026-04-14 08:01 46.93691 -3.44766 35086 ft 486 kts 202°
2026-04-14 08:01 46.87188 -3.47462 35073 ft 486 kts 202°
2026-04-14 08:02 46.80682 -3.50141 35072 ft 486 kts 202°
2026-04-14 08:02 46.74171 -3.52808 35075 ft 486 kts 202°
2026-04-14 08:03 46.67661 -3.55488 35076 ft 486 kts 202°
2026-04-14 08:03 46.61156 -3.58174 35077 ft 486 kts 202°
2026-04-14 08:04 46.54643 -3.60840 35076 ft 486 kts 202°
2026-04-14 08:04 46.48126 -3.63485 35065 ft 486 kts 202°
2026-04-14 08:05 46.41616 -3.66110 35092 ft 485 kts 202°
2026-04-14 08:05 46.35122 -3.68740 35099 ft 484 kts 202°
2026-04-14 08:06 46.28452 -3.70500 35083 ft 492 kts 191°
2026-04-14 08:06 46.21642 -3.71508 35082 ft 492 kts 191°
2026-04-14 08:07 46.14828 -3.72520 35088 ft 492 kts 191°
2026-04-14 08:07 46.08006 -3.73520 35086 ft 493 kts 191°
2026-04-14 08:08 46.01184 -3.74536 35094 ft 493 kts 191°
2026-04-14 08:08 45.94355 -3.75559 35102 ft 493 kts 191°
2026-04-14 08:09 45.87525 -3.76572 35101 ft 494 kts 190°
2026-04-14 08:09 45.80676 -3.77573 35098 ft 495 kts 191°
2026-04-14 08:10 45.73826 -3.78583 35100 ft 495 kts 191°
2026-04-14 08:10 45.66971 -3.79598 35098 ft 495 kts 191°
2026-04-14 08:11 45.60107 -3.80599 35104 ft 496 kts 190°
2026-04-14 08:11 45.53232 -3.81597 35114 ft 497 kts 190°
2026-04-14 08:12 45.46409 -3.82592 35115 ft 497 kts 190°
2026-04-14 08:12 45.39528 -3.83593 35127 ft 497 kts 190°
2026-04-14 08:13 45.32650 -3.84577 35133 ft 497 kts 190°
2026-04-14 08:13 45.25776 -3.85576 35134 ft 497 kts 190°
2026-04-14 08:14 45.18901 -3.86571 35126 ft 496 kts 190°
2026-04-14 08:14 45.12035 -3.87558 35146 ft 495 kts 190°
2026-04-14 08:15 45.05180 -3.88533 35149 ft 495 kts 190°
2026-04-14 08:15 44.98325 -3.89504 35151 ft 495 kts 190°
2026-04-14 08:16 44.91472 -3.90482 35149 ft 495 kts 190°
2026-04-14 08:16 44.84618 -3.91463 35150 ft 495 kts 190°
2026-04-14 08:17 44.77762 -3.92439 35155 ft 495 kts 190°
2026-04-14 08:17 44.70899 -3.93405 35159 ft 496 kts 190°
2026-04-14 08:18 44.64035 -3.94376 35162 ft 496 kts 190°
2026-04-14 08:18 44.57167 -3.95346 35165 ft 496 kts 190°
2026-04-14 08:19 44.50305 -3.96315 35165 ft 496 kts 190°
2026-04-14 08:19 44.43441 -3.97278 35165 ft 496 kts 189°
2026-04-14 08:20 44.36567 -3.98232 35167 ft 496 kts 189°
2026-04-14 08:20 44.29692 -3.99164 35167 ft 497 kts 189°
2026-04-14 08:21 44.22795 -3.99959 35172 ft 497 kts 188°
2026-04-14 08:21 44.15893 -4.00702 35175 ft 498 kts 188°
2026-04-14 08:22 44.08989 -4.01465 35175 ft 498 kts 188°
2026-04-14 08:22 44.02083 -4.02255 35177 ft 498 kts 188°
2026-04-14 08:23 43.95176 -4.03057 35163 ft 498 kts 188°
2026-04-14 08:23 43.88266 -4.03847 35184 ft 498 kts 188°
2026-04-14 08:24 43.81355 -4.04627 35172 ft 498 kts 188°
2026-04-14 08:24 43.74454 -4.05399 35178 ft 498 kts 188°
2026-04-14 08:25 43.67549 -4.06170 35173 ft 498 kts 188°
2026-04-14 08:25 43.60647 -4.06951 35179 ft 498 kts 188°
2026-04-14 08:26 43.53744 -4.07726 35172 ft 498 kts 188°
2026-04-14 08:26 43.46841 -4.08501 35177 ft 498 kts 188°
2026-04-14 08:27 43.39932 -4.09271 35183 ft 498 kts 188°
2026-04-14 08:27 43.33017 -4.10042 35184 ft 499 kts 188°
2026-04-14 08:28 43.26098 -4.10809 35187 ft 499 kts 188°
2026-04-14 08:28 43.19167 -4.11571 35196 ft 500 kts 187°
2026-04-14 08:29 43.12242 -4.12339 35201 ft 500 kts 187°
2026-04-14 08:29 43.05302 -4.13112 35198 ft 501 kts 187°
2026-04-14 08:30 42.98393 -4.13868 35197 ft 502 kts 187°
2026-04-14 08:30 42.91428 -4.14619 35208 ft 502 kts 187°
2026-04-14 08:31 42.84454 -4.15385 35211 ft 503 kts 187°
2026-04-14 08:31 42.73991 -4.16528 35224 ft 503 kts 187°
2026-04-14 08:32 42.67016 -4.17287 35236 ft 503 kts 187°
2026-04-14 08:32 42.60042 -4.18046 35235 ft 503 kts 187°
2026-04-14 08:33 42.53069 -4.18800 35219 ft 503 kts 187°
2026-04-14 08:33 42.46097 -4.19558 35232 ft 503 kts 187°
2026-04-14 08:34 42.39129 -4.20318 35243 ft 502 kts 187°
2026-04-14 08:34 42.32155 -4.21069 35248 ft 503 kts 187°
2026-04-14 08:35 42.26309 -4.21695 35247 ft 503 kts 187°
2026-04-14 08:35 42.19334 -4.22436 35249 ft 503 kts 187°
2026-04-14 08:36 42.12361 -4.23180 35251 ft 503 kts 187°
2026-04-14 08:36 42.05383 -4.23932 35245 ft 503 kts 187°
2026-04-14 08:37 41.98400 -4.24681 35243 ft 503 kts 187°
2026-04-14 08:37 41.91421 -4.25417 35246 ft 503 kts 187°
2026-04-14 08:38 41.84439 -4.26150 35246 ft 503 kts 187°
2026-04-14 08:38 41.77450 -4.26892 35248 ft 504 kts 187°
2026-04-14 08:39 41.70465 -4.27633 35251 ft 504 kts 187°
2026-04-14 08:39 41.63476 -4.28373 35248 ft 504 kts 187°
2026-04-14 08:40 41.56483 -4.29109 35249 ft 504 kts 187°
2026-04-14 08:40 41.49491 -4.29843 35254 ft 504 kts 187°
2026-04-14 08:41 41.42540 -4.30569 35250 ft 504 kts 187°
2026-04-14 08:41 41.35543 -4.31292 35251 ft 505 kts 187°
2026-04-14 08:42 41.28540 -4.32026 35249 ft 505 kts 187°
2026-04-14 08:42 41.21495 -4.32758 35253 ft 505 kts 187°
2026-04-14 08:43 41.14540 -4.33483 35251 ft 505 kts 187°
2026-04-14 08:43 41.07538 -4.34213 35253 ft 505 kts 187°
2026-04-14 08:44 41.00488 -4.34938 35250 ft 505 kts 187°
2026-04-14 08:44 40.93468 -4.35662 35241 ft 506 kts 187°
2026-04-14 08:45 40.86442 -4.36387 35240 ft 507 kts 187°
2026-04-14 08:45 40.79409 -4.37112 35242 ft 507 kts 187°
2026-04-14 08:46 40.72360 -4.37838 35231 ft 509 kts 187°
2026-04-14 08:46 40.65295 -4.38558 35219 ft 510 kts 187°
2026-04-14 08:47 40.58267 -4.39284 35224 ft 510 kts 187°
2026-04-14 08:47 40.51148 -4.40013 35221 ft 510 kts 187°
2026-04-14 08:48 40.44067 -4.40724 35222 ft 511 kts 187°
2026-04-14 08:48 40.36973 -4.41427 35200 ft 510 kts 187°
2026-04-14 08:49 40.29943 -4.42134 35219 ft 510 kts 187°
2026-04-14 08:49 40.22867 -4.42854 35231 ft 510 kts 187°
2026-04-14 08:50 40.15797 -4.43568 35226 ft 509 kts 187°
2026-04-14 08:50 40.08731 -4.44292 35235 ft 509 kts 186°
2026-04-14 08:51 40.01659 -4.45004 35237 ft 510 kts 186°
2026-04-14 08:51 39.94586 -4.45699 35239 ft 510 kts 186°
2026-04-14 08:52 39.87513 -4.46401 35235 ft 510 kts 186°
2026-04-14 08:52 39.80439 -4.47113 35235 ft 510 kts 186°
2026-04-14 08:53 39.73359 -4.47824 35231 ft 510 kts 186°
2026-04-14 08:53 39.66276 -4.48519 35229 ft 511 kts 186°
2026-04-14 08:54 39.59186 -4.49219 35223 ft 511 kts 186°
2026-04-14 08:54 39.52097 -4.49921 35228 ft 511 kts 186°
2026-04-14 08:55 39.45005 -4.50639 35220 ft 511 kts 186°
2026-04-14 08:55 39.37919 -4.51348 35230 ft 511 kts 186°
2026-04-14 08:56 39.30826 -4.52032 35234 ft 511 kts 186°
2026-04-14 08:56 39.23733 -4.52724 35238 ft 511 kts 186°
2026-04-14 08:57 39.16643 -4.53423 35246 ft 511 kts 186°
2026-04-14 08:57 39.09551 -4.54114 35251 ft 511 kts 186°
2026-04-14 08:58 39.02460 -4.54795 35253 ft 511 kts 186°
2026-04-14 08:58 38.95365 -4.55480 35252 ft 511 kts 186°
2026-04-14 08:59 38.88311 -4.56497 35252 ft 510 kts 191°
2026-04-14 08:59 38.81326 -4.58079 35238 ft 509 kts 194°
2026-04-14 09:00 38.74361 -4.59728 35253 ft 509 kts 193°
2026-04-14 09:00 38.67377 -4.61218 35261 ft 509 kts 192°
2026-04-14 09:01 38.60373 -4.62625 35267 ft 509 kts 192°
2026-04-14 09:01 38.53377 -4.64034 35247 ft 508 kts 192°
2026-04-14 09:02 38.46396 -4.65479 35263 ft 508 kts 192°
2026-04-14 09:02 38.39413 -4.66930 35267 ft 508 kts 192°
2026-04-14 09:03 38.32437 -4.68365 35206 ft 505 kts 192°
2026-04-14 09:03 38.28983 -4.69069 34855 ft 500 kts 192°
2026-04-14 09:03 38.25560 -4.69768 34479 ft 496 kts 192°
2026-04-14 09:04 38.22164 -4.70464 34073 ft 492 kts 192°
2026-04-14 09:04 38.18795 -4.71152 33631 ft 488 kts 192°
2026-04-14 09:04 38.15452 -4.71835 33203 ft 484 kts 192°
2026-04-14 09:04 38.12139 -4.72514 32785 ft 480 kts 192°
2026-04-14 09:05 38.08853 -4.73186 32379 ft 476 kts 192°
2026-04-14 09:05 38.05595 -4.73848 31972 ft 473 kts 192°
2026-04-14 09:05 38.02359 -4.74507 31573 ft 469 kts 192°
2026-04-14 09:05 37.99152 -4.75157 31181 ft 465 kts 192°
2026-04-14 09:06 37.95964 -4.75804 30804 ft 462 kts 192°
2026-04-14 09:06 37.92806 -4.76443 30422 ft 458 kts 192°
2026-04-14 09:06 37.89670 -4.77079 29996 ft 455 kts 192°
2026-04-14 09:06 37.86560 -4.77709 29560 ft 451 kts 192°
2026-04-14 09:07 37.83472 -4.78338 29133 ft 448 kts 192°
2026-04-14 09:07 37.80400 -4.78966 28712 ft 445 kts 192°
2026-04-14 09:07 37.77351 -4.79586 28308 ft 443 kts 191°
2026-04-14 09:07 37.74318 -4.80200 27924 ft 440 kts 191°
2026-04-14 09:08 37.71308 -4.80807 27542 ft 437 kts 191°
2026-04-14 09:08 37.68318 -4.81409 27151 ft 434 kts 191°
2026-04-14 09:08 37.65347 -4.82010 26763 ft 431 kts 191°
2026-04-14 09:08 37.62399 -4.82609 26379 ft 428 kts 191°
2026-04-14 09:09 37.59463 -4.83203 25980 ft 426 kts 191°
2026-04-14 09:09 37.56547 -4.83791 25585 ft 424 kts 191°
2026-04-14 09:09 37.53639 -4.84379 25205 ft 421 kts 191°
2026-04-14 09:09 37.50751 -4.84962 24828 ft 419 kts 191°
2026-04-14 09:10 37.47886 -4.85539 24458 ft 416 kts 191°
2026-04-14 09:10 37.45036 -4.86112 24087 ft 413 kts 191°
2026-04-14 09:10 37.42204 -4.86680 23691 ft 411 kts 191°
2026-04-14 09:10 37.39392 -4.87242 23274 ft 408 kts 191°
2026-04-14 09:11 37.36596 -4.87798 22861 ft 405 kts 191°
2026-04-14 09:11 37.33866 -4.88340 22477 ft 402 kts 191°
2026-04-14 09:11 37.31114 -4.88887 22092 ft 399 kts 191°
2026-04-14 09:11 37.28385 -4.89429 21707 ft 396 kts 191°
2026-04-14 09:12 37.25671 -4.89968 21332 ft 393 kts 190°
2026-04-14 09:12 37.22980 -4.90501 20952 ft 390 kts 190°
2026-04-14 09:12 37.20310 -4.91031 20582 ft 387 kts 191°
2026-04-14 09:12 37.17656 -4.91561 20211 ft 385 kts 191°
2026-04-14 09:13 37.15023 -4.92089 19849 ft 382 kts 191°
2026-04-14 09:13 37.12409 -4.92612 19489 ft 379 kts 190°
2026-04-14 09:13 37.09810 -4.93130 19142 ft 377 kts 190°
2026-04-14 09:13 37.07231 -4.93641 18804 ft 374 kts 190°
2026-04-14 09:14 37.04644 -4.93930 18461 ft 372 kts 180°
2026-04-14 09:14 37.02063 -4.93818 18063 ft 370 kts 178°
2026-04-14 09:14 36.99497 -4.93683 17684 ft 367 kts 178°
2026-04-14 09:14 36.96953 -4.93548 17313 ft 365 kts 178°
2026-04-14 09:15 36.94427 -4.93413 16964 ft 362 kts 178°
2026-04-14 09:15 36.91913 -4.93280 16598 ft 360 kts 178°
2026-04-14 09:15 36.89414 -4.93150 16271 ft 358 kts 178°
2026-04-14 09:15 36.86936 -4.93022 15927 ft 356 kts 178°
2026-04-14 09:16 36.84468 -4.92897 15570 ft 355 kts 178°
2026-04-14 09:16 36.82003 -4.92772 15227 ft 353 kts 178°
2026-04-14 09:16 36.79558 -4.92646 14905 ft 351 kts 178°
2026-04-14 09:16 36.77949 -4.92563 14700 ft 349 kts 178°
2026-04-14 09:17 36.75523 -4.92438 14383 ft 347 kts 178°
2026-04-14 09:17 36.73118 -4.92317 14070 ft 345 kts 178°
2026-04-14 09:17 36.70723 -4.92197 13751 ft 343 kts 178°
2026-04-14 09:17 36.68347 -4.92074 13412 ft 341 kts 178°
2026-04-14 09:18 36.65992 -4.91953 13105 ft 338 kts 178°
2026-04-14 09:18 36.63651 -4.91831 12776 ft 335 kts 178°
2026-04-14 09:18 36.61330 -4.91712 12399 ft 333 kts 178°
2026-04-14 09:18 36.59013 -4.91595 12059 ft 332 kts 178°
2026-04-14 09:19 36.56719 -4.91478 11762 ft 329 kts 178°
2026-04-14 09:19 36.54437 -4.91360 11468 ft 327 kts 178°
2026-04-14 09:19 36.52172 -4.91245 11113 ft 325 kts 178°
2026-04-14 09:19 36.49920 -4.91129 10800 ft 323 kts 178°
2026-04-14 09:20 36.47687 -4.91014 10504 ft 320 kts 178°
2026-04-14 09:20 36.45481 -4.90902 10283 ft 315 kts 178°
2026-04-14 09:20 36.43306 -4.90792 9994 ft 312 kts 177°
2026-04-14 09:20 36.41145 -4.90681 9683 ft 309 kts 177°
2026-04-14 09:21 36.39002 -4.90573 9378 ft 307 kts 178°
2026-04-14 09:21 36.36882 -4.90466 9072 ft 304 kts 178°
2026-04-14 09:21 36.34776 -4.90356 8742 ft 300 kts 178°
2026-04-14 09:21 36.32735 -4.90250 8513 ft 285 kts 178°
2026-04-14 09:22 36.30813 -4.90149 8346 ft 269 kts 178°
2026-04-14 09:22 36.28966 -4.90053 7980 ft 264 kts 178°
2026-04-14 09:22 36.27137 -4.89959 7733 ft 261 kts 178°
2026-04-14 09:22 36.25329 -4.89868 7487 ft 259 kts 178°
2026-04-14 09:23 36.23532 -4.89776 7202 ft 258 kts 178°
2026-04-14 09:23 36.21749 -4.89684 6858 ft 255 kts 178°
2026-04-14 09:23 36.19980 -4.89593 6512 ft 254 kts 178°
2026-04-14 09:23 36.18246 -4.89859 6149 ft 251 kts 200°
2026-04-14 09:24 36.16756 -4.90897 5803 ft 246 kts 224°
2026-04-14 09:24 36.15698 -4.92529 5448 ft 243 kts 246°
2026-04-14 09:24 36.15207 -4.94504 5105 ft 240 kts 268°
2026-04-14 09:24 36.15222 -4.96536 4894 ft 232 kts 275°
2026-04-14 09:25 36.15277 -4.98495 4762 ft 224 kts 274°
2026-04-14 09:25 36.15324 -5.00386 4597 ft 217 kts 274°
2026-04-14 09:25 36.15370 -5.02239 4351 ft 215 kts 274°
2026-04-14 09:25 36.15414 -5.04084 4080 ft 214 kts 274°
2026-04-14 09:26 36.15457 -5.05931 3725 ft 216 kts 274°
2026-04-14 09:26 36.15502 -5.07785 3294 ft 215 kts 275°
2026-04-14 09:26 36.15548 -5.09637 2862 ft 215 kts 273°
2026-04-14 09:26 36.15592 -5.11461 2569 ft 207 kts 274°
2026-04-14 09:27 36.15633 -5.13193 2361 ft 196 kts 274°
2026-04-14 09:27 36.15638 -5.14845 2170 ft 188 kts 271°
2026-04-14 09:27 36.15601 -5.16454 1999 ft 186 kts 270°
2026-04-14 09:27 36.15557 -5.18017 1849 ft 177 kts 270°
2026-04-14 09:28 36.15513 -5.19488 1659 ft 166 kts 270°
2026-04-14 09:28 36.15473 -5.20896 1505 ft 161 kts 270°
2026-04-14 09:28 36.15437 -5.22267 1382 ft 159 kts 270°
2026-04-14 09:28 36.15428 -5.23635 1255 ft 159 kts 277°
2026-04-14 09:29 36.15485 -5.24982 1128 ft 155 kts 270°
2026-04-14 09:29 36.15434 -5.26313 1011 ft 155 kts 268°
2026-04-14 09:29 36.15381 -5.27614 923 ft 145 kts 269°
2026-04-14 09:29 36.15330 -5.28801 887 ft 135 kts 268°
2026-04-14 09:30 36.15285 -5.29961 680 ft 133 kts 268°
2026-04-14 09:30 36.15256 -5.31095 475 ft 130 kts 268°
2026-04-14 09:30 36.15219 -5.32213 403 ft 130 kts 268°
2026-04-14 09:30 36.15187 -5.33341 169 ft 131 kts 266°
2026-04-14 09:31 36.15141 -5.34449 17 ft 123 kts 267°
2026-04-14 09:31 36.15111 -5.35295 24 ft 60 kts 267°
2026-04-14 09:31 36.15098 -5.35695 18 ft 28 kts 268°
2026-04-14 09:31 36.15074 -5.35853 19 ft 15 kts 238°
2026-04-14 09:32 36.15092 -5.35887 18 ft 7 kts 50°
2026-04-14 09:32 36.15095 -5.35799 18 ft 13 kts 91°
2026-04-14 09:32 36.15101 -5.35559 21 ft 14 kts 88°
2026-04-14 09:33 36.15106 -5.35434 23 ft 15 kts 86°
2026-04-14 09:33 36.15111 -5.35299 24 ft 17 kts 87°
2026-04-14 09:33 36.15116 -5.35146 23 ft 19 kts 88°
2026-04-14 09:33 36.15122 -5.34976 24 ft 21 kts 86°
2026-04-14 09:34 36.15129 -5.34805 22 ft 18 kts 88°
2026-04-14 09:34 36.15136 -5.34705 20 ft 9 kts 67°
2026-04-14 09:34 36.15159 -5.34684 21 ft 1 kts 19°
2026-04-14 09:34 36.15196 -5.34684 21 ft 6 kts 347°
2026-04-14 09:35 36.15240 -5.34714 19 ft 9 kts 339°
2026-04-14 09:35 36.15269 -5.34719 17 ft 4 kts 355°
2026-04-14 09:35 36.15291 -5.34719 17 ft 3 kts
2026-04-14 09:35 36.15302 -5.34719 17 ft 0 kts